Temp
83 71 66 74 80 83 84 71 70 76 83 85 75 75 77 82 82 78 76 78 79 83 85 88 89 89 86 85 82 81 81 78 79 77 76 76 77 78 74 73 74 74 74 76
75 70 80 85 86 83 81 76 74 82 84 80 80 76 81 83 74 77 76 75 80 83 83 87 86 88 86 83 81 80 80 81 79 80 78 78 78 77 78 72 73 77 75 78
71 78 89 85 83 81 77 72 77 75 82 81 78 71 77 74 76 80 79 80 80 83 84 86 86 86 85 83 80 80 79 79 80 80 79 78 79 77 74 73 73 76 80 79
75 86 86 83 81 79 67 85 87 84 73 63 78 58 66 68 69 73 75 75 74 82 88 88 88 86 85 84 84 82 80 79 80 80 78 78 76 72 75 76 74 77 79 79
74 80 79 78 80 83 76 85 81 81 72 66 73 65 58 69 68 71 74 75 78 79 87 88 89 90 87 86 84 82 82 79 80 79 78 76 76 77 76 75 75 75 76 78
78 87 80 80 86 85 87 79 77 74 67 57 67 65 54 64 68 70 74 74 85 80 80 88 92 92 89 87 85 83 80 80 80 79 78 77 76 73 74 74 73 73 75 74
75 78 83 83 72 80 76 62 53 52 53 57 68 63 60 72 74 76 78 78 84 84 81 82 89 89 88 86 85 83 81 78 79 80 78 78 77 74 73 73 72 73 73 72
62 62 77 83 76 70 69 65 55 49 50 58 70 60 66 80 82 83 83 79 79 78 79 84 86 90 89 88 86 83 80 80 79 79 78 78 78 77 75 71 67 70 74 75
62 68 84 85 83 79 69 62 73 60 58 56 62 63 72 76 79 82 82 82 76 77 82 81 87 91 87 88 85 83 81 80 80 79 79 79 78 77 76 72 72 72 74 77
70 61 78 83 82 80 67 73 61 59 49 49 58 58 60 69 72 82 80 78 77 78 79 81 89 91 89 88 86 84 82 80 80 81 80 80 78 77 76 72 72 74 77 76
68 65 70 76 71 70 68 63 63 63 60 51 50 56 70 70 73 79 79 82 80 78 79 83 83 92 91 88 85 83 81 80 80 80 80 78 79 78 76 75 74 78 77 75
72 67 59 70 81 84 77 70 67 56 57 58 57 61 79 75 79 80 81 82 79 83 79 85 82 91 89 87 84 82 82 81 82 82 78 78 78 77 77 76 76 78 75 74
74 64 56 64 73 75 69 72 64 67 63 57 54 61 78 80 78 79 79 83 79 80 78 82 83 89 88 86 83 82 82 82 82 81 79 78 77 77 76 72 80 75 74 75
77 67 62 57 65 72 68 74 72 65 57 58 60 67 71 78 78 76 80 82 81 77 78 80 83 87 86 84 81 81 81 82 81 81 80 78 78 76 74 73 73 73 73 72
74 63 63 70 77 79 76 77 78 67 66 59 67 69 70 74 76 77 81 83 85 86 87 81 79 79 80 81 80 81 79 80 80 80 77 74 75 75 73 72 71 70 71 70
74 64 65 66 77 78 75 78 77 74 74 70 72 69 79 77 75 78 81 82 84 82 85 80 80 79 79 79 79 80 78 79 79 78 75 75 74 71 70 70 67 67 70 69
70 65 62 57 71 72 65 72 74 74 72 71 63 72 79 76 76 76 77 84 84 86 81 80 80 80 80 79 80 76 76 77 78 75 75 74 71 69 68 67 66 67 68 68
70 66 63 58 61 52 70 81 80 75 74 75 75 77 82 81 79 80 81 81 82 85 82 81 82 81 81 81 79 78 77 76 75 74 72 72 71 69 69 68 67 67 67 66
75 66 59 56 55 65 72 74 76 70 66 72 71 74 82 82 80 77 83 83 82 82 80 82 83 83 81 79 78 76 76 75 73 72 71 71 70 70 69 67 66 65 65 63
76 72 63 58 54 53 60 77 80 75 56 64 62 62 58 75 66 69 80 82 81 83 83 83 83 81 80 78 77 74 73 75 73 73 72 71 70 70 67 66 65 65 64 63
63 61 58 58 57 64 69 74 77 59 56 63 65 64 64 60 73 77 80 80 80 80 82 84 80 80 78 77 76 74 75 74 74 73 72 71 70 69 68 67 67 67 64 63
61 59 59 59 56 51 71 73 63 61 62 64 64 65 63 68 78 78 78 76 78 78 81 81 79 78 77 77 76 74 74 73 73 72 71 70 69 70 69 68 69 67 63 61
61 65 61 64 63 67 69 66 65 63 66 68 67 72 75 77 79 80 76 75 77 79 79 81 79 75 77 76 77 73 72 73 73 72 70 69 69 69 70 69 67 63 61 60
71 72 65 64 63 66 70 69 70 72 73 73 75 78 81 78 80 80 77 75 75 77 77 79 79 74 73 73 77 75 71 73 73 70 69 69 68 67 70 70 65 61 60 60
69 69 66 66 62 67 69 70 72 74 76 79 80 83 81 77 76 79 76 75 75 76 77 76 75 71 73 74 74 74 71 72 72 70 70 68 67 69 69 62 61 62 61 65
71 66 61 59 67 65 65 70 73 72 74 76 76 77 81 79 75 80 76 75 74 74 74 74 74 70 72 71 73 74 73 72 71 69 68 67 67 68 66 59 55 52 53 52
MSLP
1001.46 1001.91 1001.94 1001.87 1001.42 1001.06 1001.14 1001.86 1002.69 1001.95 1003.11 1002.05 1002.82 1003.07 1003.42 1003.02 1004.24 1005.42 1005.75 1005.89 1006.58 1006.49 1006.28 1006.64 1007.31 1008.02 1008.67 1009.24 1009.76 1010.25 1010.65 1011.36 1011.93 1012.45 1013.01 1013.50 1013.66 1013.68 1014.16 1013.97 1013.58 1014.37 1014.85 1015.03
1001.86 1001.75 1001.58 1001.28 1000.89 1000.72 1000.62 1001.35 1001.77 1001.49 1001.73 1001.39 1001.24 1002.27 1002.88 1003.25 1004.78 1004.33 1005.27 1006.62 1006.61 1006.21 1006.16 1006.46 1007.08 1007.91 1008.45 1009.18 1009.66 1010.11 1010.49 1011.02 1011.58 1012.02 1012.46 1012.89 1013.29 1013.60 1013.87 1014.19 1014.30 1014.28 1014.67 1014.40
1001.54 1001.11 1000.66 1000.55 1000.18 1000.16 1000.10 1000.13 999.93 1001.02 1000.89 1000.32 1000.95 1002.21 1003.59 1004.65 1004.58 1003.55 1005.41 1006.06 1007.08 1006.23 1005.28 1006.03 1006.61 1007.46 1008.20 1008.78 1009.37 1009.83 1010.28 1010.67 1011.09 1011.56 1012.05 1012.53 1013.08 1013.46 1014.02 1014.37 1014.43 1014.33 1014.06 1014.24
1000.85 1000.19 999.93 999.77 999.73 999.41 999.64 999.23 999.29 999.38 1000.17 1000.79 1000.96 1002.91 1003.95 1004.62 1004.24 1004.67 1006.88 1006.14 1006.02 1005.73 1004.36 1004.68 1005.75 1006.84 1007.64 1008.18 1008.65 1009.21 1009.76 1010.37 1010.70 1011.12 1011.76 1012.33 1012.87 1013.52 1013.68 1014.06 1014.21 1014.16 1013.97 1014.11
1000.32 999.68 999.32 998.96 998.83 998.79 999.27 999.12 999.48 999.76 1000.44 1000.88 1001.20 1002.75 1004.71 1005.05 1005.54 1005.34 1004.65 1003.96 1003.43 1003.76 1003.41 1003.75 1004.57 1005.48 1006.42 1007.43 1008.09 1008.77 1009.24 1009.82 1010.31 1010.85 1011.42 1012.10 1012.56 1013.07 1013.44 1013.79 1014.20 1014.37 1014.19 1013.93
999.90 999.01 999.06 998.39 998.31 998.63 998.84 999.51 999.99 1000.41 1001.33 1001.99 1001.77 1002.59 1005.33 1005.01 1004.00 1004.30 1003.87 1003.09 1002.23 1002.73 1002.97 1003.43 1003.88 1004.69 1005.39 1006.46 1007.46 1008.22 1008.90 1009.45 1009.88 1010.43 1011.18 1011.75 1012.14 1013.01 1013.22 1013.63 1013.98 1014.40 1014.41 1014.29
1000.03 999.20 998.41 998.31 998.51 998.85 999.37 1000.31 1001.42 1002.42 1002.68 1002.59 1001.79 1002.62 1003.67 1003.40 1002.97 1002.77 1001.61 1001.98 1000.79 1001.71 1002.74 1003.66 1003.90 1004.22 1004.85 1005.87 1006.74 1007.71 1008.52 1009.20 1009.64 1010.15 1010.77 1011.24 1011.77 1012.67 1012.91 1013.41 1013.69 1014.05 1014.35 1014.51
1000.14 999.09 998.18 998.02 998.50 999.24 999.87 1000.63 1001.82 1002.73 1003.14 1002.54 1001.93 1002.76 1002.57 1001.22 1001.29 1001.58 1000.64 1001.12 1002.00 1002.00 1004.49 1004.00 1003.23 1003.47 1004.28 1004.92 1005.93 1007.13 1008.09 1008.70 1009.30 1009.83 1010.40 1010.81 1011.30 1011.92 1012.72 1013.07 1013.52 1013.80 1013.83 1013.99
999.52 998.49 996.77 997.58 997.92 998.79 999.53 1000.23 1000.58 1002.03 1002.53 1002.81 1002.51 1003.04 1002.64 1002.08 1001.50 1002.45 1002.40 1003.12 1002.18 1003.86 1006.01 1004.65 1002.08 1002.32 1003.53 1004.34 1005.27 1006.34 1007.57 1008.22 1008.80 1009.50 1010.05 1010.39 1010.77 1011.35 1012.18 1012.59 1012.91 1013.38 1013.48 1013.85
998.79 998.97 997.82 997.52 997.78 998.33 998.96 999.71 1000.78 1001.97 1003.30 1003.44 1002.41 1002.39 1001.91 1001.81 1001.27 1001.25 1001.00 1001.85 1003.51 1002.85 1002.56 1000.63 1001.55 1001.41 1002.44 1003.46 1004.82 1005.99 1006.92 1007.67 1008.38 1009.13 1009.71 1010.15 1010.43 1010.85 1011.50 1011.96 1012.49 1012.91 1013.34 1013.89
998.37 998.88 998.64 997.95 998.00 998.30 998.80 999.51 1000.53 1001.81 1002.77 1003.30 1002.75 1002.55 1000.60 1000.32 1000.53 1000.02 1000.40 1000.66 1001.72 1001.52 1001.02 1001.43 1000.93 1001.15 1001.71 1002.80 1004.13 1005.56 1006.70 1007.59 1008.27 1008.90 1009.41 1010.04 1010.29 1010.67 1011.27 1011.86 1012.50 1012.86 1013.36 1013.76
998.50 998.84 999.24 998.54 997.47 997.39 997.93 998.81 999.78 1001.60 1002.31 1002.35 1002.16 1001.76 1000.07 999.98 999.60 999.87 1000.58 1000.53 1000.69 999.97 999.99 999.73 1000.20 1001.71 1001.82 1002.94 1004.07 1005.31 1006.41 1007.25 1007.97 1008.64 1009.32 1010.07 1010.59 1010.98 1011.36 1011.60 1012.09 1012.76 1013.25 1013.76
999.40 999.48 999.56 999.06 997.80 997.48 997.77 998.16 998.82 999.80 1000.70 1001.69 1001.94 1001.30 1000.32 999.87 999.97 999.58 999.60 1000.38 1000.34 1000.00 1000.06 1000.29 1000.53 1001.54 1001.83 1002.87 1003.93 1005.01 1006.05 1007.03 1007.74 1008.48 1009.27 1009.57 1010.06 1010.41 1011.19 1011.88 1012.48 1012.76 1013.41 1013.89
999.03 999.68 1000.12 1000.04 998.92 998.02 997.92 997.97 998.40 999.26 1000.66 1001.36 1001.23 1000.71 1000.15 999.75 999.45 999.30 998.89 1000.14 1000.61 1000.48 1000.26 1000.27 1000.62 1001.10 1001.78 1002.76 1003.69 1004.79 1005.74 1006.61 1007.37 1008.09 1008.88 1009.16 1009.86 1010.16 1010.79 1011.78 1012.94 1013.15 1013.56 1014.06
999.15 999.99 1000.11 999.89 998.98 998.25 997.82 997.92 998.36 999.20 1000.12 1000.92 1001.09 1000.30 999.67 999.60 999.31 998.89 998.58 998.16 998.90 999.03 999.87 1000.05 1000.60 1001.26 1002.14 1003.18 1004.11 1004.91 1005.71 1006.39 1007.14 1008.00 1008.72 1009.48 1010.13 1010.40 1011.06 1012.04 1013.42 1014.56 1013.95 1014.51
999.42 1000.21 1000.33 1000.47 999.68 999.03 998.60 998.46 998.72 999.54 1000.26 1000.72 1000.30 999.80 999.23 999.22 999.17 998.67 998.72 998.60 998.91 999.27 999.77 1000.46 1001.19 1001.73 1002.67 1003.49 1004.42 1005.17 1005.84 1006.43 1007.07 1007.97 1008.87 1009.71 1010.23 1011.12 1011.84 1012.59 1013.49 1014.01 1014.80 1015.43
999.85 1000.62 1001.24 1001.25 1000.56 999.95 999.51 998.92 998.91 999.52 1000.83 1001.95 1002.60 1001.56 1000.01 1000.00 999.46 998.81 998.99 998.99 998.87 999.29 1000.16 1000.88 1001.72 1002.52 1003.06 1003.64 1004.30 1005.24 1005.96 1006.69 1007.33 1008.16 1009.11 1009.97 1010.57 1011.80 1012.52 1013.12 1013.81 1014.58 1015.29 1015.63
1000.20 1000.99 1001.44 1002.18 1001.63 1001.19 1000.19 999.27 999.06 999.96 1001.62 1002.44 1003.19 1002.55 1001.58 1000.95 1000.26 999.70 999.30 999.32 999.33 999.53 1000.40 1001.05 1001.67 1002.44 1003.24 1003.74 1004.50 1005.32 1006.15 1006.87 1007.65 1008.80 1009.62 1010.49 1011.24 1012.17 1012.89 1013.43 1013.99 1014.66 1015.27 1015.62
1000.26 1001.03 1002.06 1002.60 1002.58 1001.72 1000.62 1000.91 1000.66 1001.62 1004.05 1005.11 1005.37 1004.49 1003.44 1002.55 1001.49 1000.76 999.98 999.69 999.65 999.64 1000.04 1000.78 1001.55 1002.26 1003.02 1003.79 1004.67 1005.62 1006.51 1007.17 1008.06 1009.10 1009.93 1010.78 1011.46 1012.21 1013.14 1013.76 1014.23 1014.82 1015.40 1015.99
1000.30 1000.85 1002.24 1002.85 1003.08 1002.80 1002.83 1001.96 1002.03 1002.14 1005.67 1007.30 1007.40 1006.67 1006.14 1005.01 1003.45 1002.37 1001.43 1000.68 1000.33 1000.09 1000.06 1000.84 1001.56 1002.15 1002.97 1003.75 1004.65 1005.69 1006.74 1007.28 1008.08 1008.79 1009.71 1010.51 1011.23 1011.97 1013.14 1013.91 1014.35 1014.97 1015.64 1016.35
1001.23 1001.88 1002.61 1003.05 1003.24 1003.03 1002.91 1003.10 1002.77 1004.49 1007.16 1007.61 1006.74 1006.34 1006.24 1006.63 1004.59 1002.76 1001.64 1001.47 1001.00 1000.77 1000.37 1000.77 1001.17 1001.99 1002.85 1003.83 1004.53 1005.60 1006.44 1007.20 1007.91 1008.79 1009.55 1010.39 1011.17 1011.83 1012.70 1013.65 1014.35 1014.92 1015.61 1016.42
1001.80 1002.26 1002.69 1002.92 1003.07 1003.52 1003.48 1003.67 1004.81 1006.49 1006.85 1006.61 1006.25 1005.67 1007.18 1005.50 1004.02 1002.84 1001.95 1001.61 1001.64 1001.07 1000.63 1000.65 1001.25 1002.14 1002.99 1003.64 1004.45 1005.51 1006.20 1007.21 1008.01 1009.03 1009.95 1010.76 1011.42 1012.07 1012.79 1013.45 1014.13 1014.81 1015.76 1016.55
1001.97 1001.92 1002.44 1002.74 1003.46 1003.42 1003.93 1004.43 1005.36 1006.00 1006.07 1005.94 1005.52 1004.32 1003.71 1003.73 1002.49 1001.95 1001.94 1001.59 1001.33 1000.87 1000.50 1000.69 1001.10 1001.91 1002.60 1003.22 1004.08 1005.36 1006.58 1007.35 1008.36 1009.34 1010.10 1010.76 1011.46 1012.17 1012.84 1013.51 1014.22 1015.09 1015.64 1016.63
1002.06 1001.83 1002.56 1003.28 1004.24 1004.40 1004.32 1004.84 1004.92 1004.84 1004.69 1004.34 1004.05 1003.82 1002.51 1002.50 1001.97 1001.48 1001.45 1001.35 1000.97 1000.89 1000.54 1000.51 1001.16 1001.84 1003.06 1004.42 1004.71 1005.30 1005.83 1007.21 1008.18 1009.28 1010.45 1011.28 1011.88 1012.56 1013.01 1013.77 1014.59 1015.34 1015.90 1016.30
1002.20 1002.14 1002.65 1003.23 1004.48 1004.46 1004.43 1004.08 1003.98 1003.58 1003.56 1003.33 1002.61 1002.41 1001.95 1001.95 1002.04 1001.99 1001.60 1001.65 1001.44 1001.53 1001.19 1000.93 1001.22 1003.12 1004.00 1003.93 1004.75 1005.95 1006.53 1007.02 1008.40 1009.41 1010.43 1011.41 1012.05 1012.83 1013.64 1014.42 1015.17 1015.55 1015.77 1015.88
1002.53 1002.38 1002.86 1003.35 1003.71 1004.00 1003.96 1003.93 1003.79 1003.39 1003.16 1002.53 1002.41 1002.31 1001.31 1001.66 1002.03 1002.07 1002.03 1001.73 1001.75 1001.93 1002.03 1001.57 1001.64 1003.50 1004.68 1003.80 1005.32 1006.08 1006.45 1006.49 1008.17 1009.54 1010.55 1011.31 1012.12 1012.90 1013.79 1014.58 1015.35 1015.34 1015.51 1015.45
Wind_Speed
9 4 7 12 13 15 13 12 9 12 21 16 12 9 11 11 7 1 2 9 7 9 9 10 9 13 11 11 8 8 8 10 7 4 4 2 3 2 4 3 5 5 6 9
7 10 11 14 18 16 12 12 17 8 13 6 5 10 15 10 7 10 8 5 8 10 10 12 9 14 14 12 9 8 8 13 8 7 4 4 3 2 4 4 3 6 3 4
9 12 17 17 16 14 12 7 8 21 13 1 3 8 9 2 7 4 15 8 10 15 17 17 13 17 15 14 11 10 8 10 9 9 5 3 3 3 3 2 3 4 5 6
8 16 16 15 14 8 8 13 14 6 5 3 9 5 3 4 4 4 10 9 22 17 15 19 18 18 17 15 14 13 11 8 8 8 5 5 5 4 3 3 3 5 6 4
12 11 8 7 6 5 8 8 7 7 8 5 8 3 2 3 5 7 11 12 15 11 13 20 22 19 22 18 16 14 14 11 8 7 6 5 4 3 2 5 6 4 4 6
8 10 5 7 7 7 5 7 11 7 3 6 8 2 4 7 10 4 8 13 15 12 7 11 22 20 18 19 17 15 14 13 10 9 8 6 7 6 4 2 4 3 3 4
10 12 10 4 4 9 5 2 4 6 4 10 10 4 6 9 9 15 15 15 19 6 8 7 18 19 15 21 20 16 16 12 11 11 8 8 6 9 9 9 4 6 4 2
7 7 11 6 8 7 7 8 7 7 5 8 5 8 8 18 11 15 17 11 11 9 9 11 12 20 16 20 20 19 17 14 12 12 9 8 8 5 9 7 5 4 5 5
5 9 9 10 6 10 7 5 11 3 6 4 2 3 5 7 14 8 10 8 18 4 20 11 11 21 16 17 19 18 17 14 14 9 9 8 7 8 6 8 5 5 5 6
6 4 6 7 4 5 4 6 5 5 2 7 6 2 4 8 9 5 11 17 9 15 21 26 15 23 18 18 16 17 17 16 14 12 8 7 8 7 8 6 7 6 8 7
3 1 10 5 6 10 2 5 3 3 4 2 3 5 7 8 4 7 10 8 12 21 22 18 5 18 21 18 18 16 14 14 12 10 8 7 7 7 6 7 8 9 9 7
4 1 4 11 9 11 8 8 8 7 10 4 4 5 4 5 4 2 11 15 9 12 16 10 9 16 18 17 16 16 14 14 12 10 7 7 5 6 7 7 9 10 8 8
6 4 3 11 9 5 3 6 3 2 2 6 2 5 3 6 2 3 6 15 12 14 7 8 5 19 17 16 15 16 15 13 12 11 9 8 8 10 8 6 8 9 10 9
5 4 3 4 6 4 4 5 4 2 3 5 3 6 5 7 7 4 5 10 18 16 13 11 9 15 15 15 15 16 14 14 12 13 10 11 7 7 7 12 5 6 9 11
2 4 5 8 9 9 4 5 5 4 4 3 10 7 8 8 8 4 5 2 6 6 10 8 9 11 12 13 12 13 11 13 12 13 9 6 7 5 8 10 13 17 15 10
2 6 5 7 9 9 6 11 11 8 14 15 15 3 6 8 5 5 4 8 4 3 6 10 12 14 13 13 11 11 11 11 12 12 8 8 7 9 11 13 15 15 10 10
1 1 3 5 7 9 7 4 2 4 12 6 9 14 1 7 5 5 3 6 7 7 10 13 13 12 11 12 13 10 10 10 11 9 8 8 12 11 10 12 10 11 9 9
3 4 1 4 6 5 8 11 3 7 12 10 5 16 13 8 6 7 7 8 4 9 11 12 12 13 11 11 11 12 11 8 8 10 11 12 14 12 10 10 11 10 8 10
5 2 2 2 3 6 5 7 7 5 8 19 18 23 16 10 7 10 10 8 6 8 9 10 11 14 12 12 11 11 10 9 11 11 11 12 13 13 10 10 10 7 8 6
7 6 5 3 3 4 1 9 12 4 3 12 14 16 15 22 7 3 7 9 9 4 10 11 12 13 13 11 13 13 10 11 11 11 11 11 12 15 11 10 10 7 6 6
3 3 2 3 2 2 1 6 6 4 4 4 13 17 21 12 9 4 5 6 8 5 5 12 15 12 13 14 15 13 12 9 10 10 10 11 11 12 13 10 7 9 7 7
4 2 2 2 2 2 2 1 5 3 4 6 8 11 20 27 21 4 3 2 7 9 2 12 11 13 15 15 14 13 12 9 9 12 11 11 11 9 9 11 9 8 7 8
1 3 3 4 3 1 3 3 6 9 5 5 9 15 22 19 8 7 7 5 5 8 5 9 12 15 15 15 14 14 10 11 10 12 11 11 11 10 10 10 9 7 8 6
3 5 4 5 2 4 3 2 6 8 7 11 14 17 5 8 10 9 7 4 3 7 4 6 13 14 11 7 11 13 11 11 15 13 11 9 10 9 10 7 6 6 5 6
4 4 3 2 9 7 4 5 7 4 6 11 9 11 5 7 11 13 5 3 1 3 5 7 7 13 13 7 13 14 11 12 12 12 12 11 9 9 8 6 3 4 2 7
4 2 1 2 3 3 3 5 6 5 9 10 9 12 4 4 5 9 3 2 5 5 3 4 4 11 15 13 13 14 14 14 14 13 9 8 8 8 7 6 5 10 4 8
Wind_Direction
235 212 233 259 259 259 267 140 173 204 229 249 188 192 218 211 203 157 164 167 176 177 167 160 155 149 133 145 152 159 151 155 149 143 147 153 210 145 99 128 149 151 212 258
246 222 233 245 260 266 273 174 205 109 242 201 275 206 208 187 156 170 145 32 214 181 164 167 160 156 155 156 163 168 164 157 162 156 165 170 162 164 148 139 205 211 263 132
204 233 225 235 246 262 271 256 254 179 218 255 109 309 143 99 231 228 95 56 307 211 172 173 174 163 162 165 168 177 175 166 168 164 163 168 94 93 104 131 214 206 138 128
223 236 244 240 241 217 273 280 293 293 144 201 165 239 92 221 194 2 72 173 195 221 180 169 177 165 173 179 176 181 178 172 175 162 164 164 157 161 186 153 148 149 137 144
248 245 261 259 273 298 243 323 320 324 322 346 300 113 268 154 52 252 193 239 200 198 196 176 178 175 179 179 180 182 183 170 170 171 159 173 161 166 102 133 148 160 152 145
241 277 292 235 258 284 266 330 327 322 335 342 253 165 227 176 202 213 265 272 203 196 178 207 180 183 176 180 179 180 178 178 168 170 166 174 174 120 151 94 155 159 157 135
275 246 261 263 4 330 322 321 318 336 332 242 265 44 225 217 194 198 195 248 263 161 190 232 187 178 180 174 182 177 178 174 171 174 162 180 184 142 156 194 155 164 151 157
212 297 210 206 170 206 247 192 168 234 246 262 349 148 221 202 202 204 197 197 284 289 314 256 184 174 181 173 170 171 175 177 172 170 170 173 180 160 168 152 172 159 153 152
344 303 108 163 159 151 277 295 226 240 291 6 177 106 15 244 254 230 218 290 230 179 174 274 171 166 172 172 167 162 171 172 174 168 164 173 171 168 155 181 145 154 142 147
270 321 190 174 147 189 187 247 8 343 227 273 288 138 215 192 196 154 80 72 308 139 150 194 206 167 171 164 159 162 167 166 168 167 165 174 171 181 160 158 154 149 140 150
346 93 290 101 178 199 269 270 268 164 149 177 297 268 217 218 245 104 121 162 173 157 183 195 94 178 167 157 155 160 161 159 157 164 166 164 174 172 144 153 155 154 149 152
224 228 314 243 237 187 190 211 184 125 289 244 154 293 204 170 168 148 181 181 205 179 200 209 162 189 157 153 151 156 158 159 162 163 156 158 155 146 159 146 146 148 139 118
322 290 319 335 5 64 167 251 256 228 128 254 170 214 204 126 92 355 98 167 203 221 243 217 185 171 156 157 153 158 157 159 162 154 157 163 166 163 184 149 144 135 118 111
105 283 216 209 258 223 190 208 226 270 41 282 307 170 194 170 136 93 22 118 207 221 211 242 158 160 154 153 150 154 155 158 157 157 171 184 163 152 168 132 205 121 121 107
134 271 318 327 330 331 1 344 313 327 302 302 207 191 208 175 134 198 175 162 320 131 169 139 120 125 129 137 136 149 146 156 155 160 166 142 121 152 91 101 85 66 44 65
253 281 317 321 301 313 349 337 56 44 21 5 346 357 188 132 143 65 223 199 216 142 89 99 102 110 120 127 128 137 146 157 148 154 139 123 118 103 110 116 112 124 141 138
269 123 33 300 333 351 1 3 284 140 75 47 14 323 123 134 158 179 285 195 150 120 116 122 120 122 127 126 134 125 125 129 139 133 117 108 111 107 115 121 120 132 137 127
327 352 71 258 336 341 260 341 308 82 63 59 12 6 23 55 67 65 63 53 68 124 126 130 134 131 130 128 120 121 126 122 112 109 106 114 121 122 126 124 126 128 133 129
289 0 331 113 279 279 330 6 36 60 47 12 357 358 4 357 30 11 8 13 11 136 136 141 134 132 133 133 131 123 130 123 124 124 122 127 130 125 124 127 129 128 124 117
254 221 148 280 238 249 309 335 357 30 97 19 8 352 349 334 11 290 10 356 6 41 140 132 133 134 136 136 124 124 125 130 132 131 133 131 138 131 134 137 137 133 118 118
38 5 82 335 273 116 38 330 316 87 240 330 29 358 335 325 280 250 58 354 324 321 170 136 138 141 135 131 129 134 139 136 137 135 133 130 137 134 139 142 137 137 130 123
154 144 237 277 282 330 255 335 84 149 219 180 99 74 295 283 276 221 155 194 284 296 252 149 136 134 142 141 140 146 144 149 137 135 136 133 135 134 138 135 138 129 120 125
354 165 180 112 208 157 353 93 141 175 199 216 185 196 221 252 270 229 199 201 256 273 273 161 146 147 156 151 147 143 146 133 133 134 138 132 129 131 137 136 126 125 127 132
31 27 64 75 143 132 216 146 166 210 212 234 239 235 279 275 266 251 182 183 258 292 92 138 143 150 145 146 143 139 140 128 137 135 129 123 126 131 131 125 121 132 137 148
227 47 309 169 120 126 165 174 207 261 309 302 321 305 261 312 325 317 149 175 333 7 106 125 148 135 160 162 126 131 129 123 128 128 132 133 134 133 127 78 105 162 170 184
322 313 80 194 139 124 209 248 271 283 262 273 287 305 249 299 274 308 90 80 64 80 122 126 134 122 133 135 126 135 143 133 133 132 137 139 137 137 120 114 80 45 60 137